Temp
69 73 74 75 74 74 74 74 74 75 75 75 75 75 75 75 75 75 76 76 77 78 79 78 77 78 77 77 76 75 75 75 75 76 77 77 77 77 76 75 75 77 76
71 73 73 74 74 74 74 74 74 75 75 75 75 75 75 75 75 75 76 76 78 78 78 77 77 77 76 75 74 74 74 74 74 75 77 77 77 77 76 75 75 76 75
71 73 73 73 74 74 75 75 75 75 75 75 75 75 75 75 75 75 76 76 77 77 78 77 77 77 75 74 74 73 73 73 73 74 74 74 76 76 76 74 75 75 75
73 74 72 73 74 74 74 75 75 75 75 75 75 75 75 75 75 75 75 75 76 77 77 77 77 76 75 74 73 73 73 73 72 72 72 75 76 76 76 75 75 75 75
72 74 71 72 73 74 74 74 75 74 74 74 74 75 75 75 75 75 75 75 76 77 78 77 76 75 73 72 72 72 72 72 73 73 74 74 75 76 76 75 75 74 74
71 71 71 71 73 74 74 74 74 74 73 73 74 74 75 75 75 74 74 75 76 76 77 76 74 73 71 71 71 71 71 71 73 77 74 74 74 75 75 74 73 73 73
70 71 71 71 72 74 74 74 73 73 73 73 73 74 74 74 74 73 73 74 74 75 75 74 73 72 71 70 70 70 70 70 70 74 74 73 73 75 75 74 73 72 72
70 71 71 72 72 73 73 72 72 72 72 72 72 73 73 73 73 73 73 73 73 73 73 72 71 71 71 70 70 69 69 70 70 73 74 72 73 74 75 74 73 73 73
71 71 70 71 72 71 71 70 70 71 71 71 71 71 71 71 71 72 72 72 72 72 72 72 70 70 70 70 69 68 68 68 67 71 74 72 73 74 75 73 73 73 72
70 72 72 70 70 69 70 70 70 70 70 70 70 70 69 70 71 71 71 71 71 71 71 71 70 70 70 69 68 68 67 67 66 66 72 73 74 75 74 73 72 72 71
69 69 72 72 70 69 68 70 70 70 70 70 70 69 68 68 68 69 69 71 71 71 71 70 70 69 68 68 68 67 67 66 66 66 67 72 74 75 74 72 71 71 72
67 68 69 72 71 69 71 69 67 69 68 67 67 67 66 70 67 68 69 70 71 70 70 70 69 68 68 66 67 67 66 66 66 66 67 70 73 74 73 72 71 71 71
72 71 72 74 70 71 72 68 68 69 68 66 66 65 66 71 70 66 65 65 64 68 65 66 66 66 66 66 66 65 66 66 66 66 67 69 72 73 73 72 71 71 70
71 71 72 73 73 73 71 69 71 71 71 70 65 64 67 69 70 69 64 64 63 62 63 63 63 64 65 66 66 66 66 66 65 66 67 68 70 73 73 72 72 71 70
68 69 71 71 72 72 68 70 69 72 71 71 67 65 66 68 69 70 65 63 62 62 62 61 62 63 64 66 66 67 66 66 66 66 66 66 68 71 73 73 72 71 70
70 68 69 72 73 74 71 70 70 72 72 71 69 65 65 66 68 68 67 63 62 62 61 61 61 62 63 64 65 66 67 67 66 66 66 67 66 68 71 72 72 72 71
65 70 68 70 72 71 71 72 73 73 72 70 69 66 65 64 64 65 63 62 62 62 62 61 61 61 62 64 65 65 67 67 67 66 66 66 67 65 67 70 71 72 71
60 59 68 72 72 71 72 71 74 73 71 69 67 66 66 65 65 64 63 63 63 62 61 60 60 60 60 62 63 64 65 66 67 66 66 66 66 68 66 67 69 70 70
57 58 61 70 71 70 71 70 70 72 71 69 68 67 66 66 66 65 64 64 62 62 61 61 59 60 59 61 63 64 64 65 66 67 66 66 66 67 67 66 66 66 68
55 57 59 61 71 71 70 69 70 69 70 70 68 68 67 67 66 65 65 64 63 61 61 59 60 59 60 61 68 66 63 64 64 65 66 67 66 66 66 67 67 67 65
53 53 56 59 60 59 68 68 68 67 68 68 68 69 67 67 67 66 66 64 64 64 63 61 60 59 59 61 62 62 62 64 63 63 64 65 65 66 66 66 67 66 67
51 52 54 55 59 59 58 66 69 68 68 69 70 69 68 67 67 67 67 65 64 64 62 61 61 58 60 61 61 61 59 62 62 63 63 63 64 66 66 66 66 66 66
48 50 52 54 57 59 59 60 69 68 66 67 66 68 68 68 68 68 68 67 65 66 63 63 63 62 61 59 62 62 57 57 60 61 61 62 63 64 67 67 67 68 67
48 50 52 54 54 57 55 58 62 68 67 68 68 69 70 69 68 69 69 68 66 66 65 64 64 64 61 62 60 65 63 62 59 59 62 61 61 62 64 66 66 67 67
49 49 50 53 53 54 53 56 55 57 68 69 66 66 68 68 68 69 68 68 67 66 66 65 64 64 65 66 63 61 61 61 60 59 57 59 61 63 63 65 66 66 66
49 49 50 52 52 53 52 52 53 54 56 60 68 66 65 67 67 68 68 69 68 67 66 65 65 64 66 67 65 65 67 65 58 58 56 56 60 61 64 62 65 66 66
MSLP
1013.79 1014.19 1014.60 1014.84 1014.85 1014.78 1014.94 1015.14 1015.29 1015.46 1015.77 1016.17 1016.67 1017.21 1017.57 1017.85 1018.07 1018.27 1018.52 1018.75 1018.90 1019.10 1019.21 1019.40 1019.50 1019.63 1019.83 1020.00 1020.18 1020.29 1020.38 1020.44 1020.52 1020.58 1020.69 1020.88 1021.05 1021.23 1021.34 1021.31 1021.23 1021.21 1021.26
1013.42 1014.39 1014.83 1015.08 1015.23 1015.09 1015.23 1015.42 1015.73 1015.98 1016.37 1016.74 1017.23 1017.67 1017.92 1018.26 1018.52 1018.67 1018.90 1019.14 1019.32 1019.49 1019.64 1019.85 1019.98 1020.22 1020.40 1020.58 1020.72 1020.86 1020.96 1021.00 1021.06 1021.12 1021.27 1021.41 1021.54 1021.70 1021.85 1021.84 1021.82 1021.83 1021.94
1013.69 1014.59 1015.13 1015.36 1015.62 1015.56 1015.67 1015.83 1016.12 1016.52 1016.91 1017.32 1017.72 1018.06 1018.34 1018.64 1018.87 1019.04 1019.21 1019.48 1019.70 1019.89 1020.07 1020.27 1020.41 1020.62 1020.86 1021.09 1021.27 1021.44 1021.47 1021.46 1021.59 1021.66 1021.69 1021.83 1021.91 1022.07 1022.28 1022.38 1022.42 1022.36 1022.42
1013.57 1014.69 1015.47 1015.64 1015.82 1015.89 1016.18 1016.41 1016.63 1017.12 1017.35 1017.73 1018.13 1018.46 1018.73 1018.94 1019.16 1019.39 1019.58 1019.81 1020.10 1020.28 1020.46 1020.65 1020.90 1021.15 1021.32 1021.50 1021.69 1021.78 1021.89 1021.99 1022.10 1022.14 1022.19 1022.23 1022.38 1022.54 1022.75 1022.90 1023.02 1023.06 1023.08
1013.97 1014.83 1015.67 1015.87 1015.95 1016.12 1016.54 1016.89 1017.12 1017.41 1017.96 1018.06 1018.42 1018.76 1018.97 1019.21 1019.45 1019.69 1019.90 1020.12 1020.41 1020.67 1020.91 1021.16 1021.29 1021.50 1021.71 1021.84 1022.03 1022.18 1022.31 1022.44 1022.50 1022.57 1022.61 1022.80 1022.99 1023.14 1023.20 1023.34 1023.47 1023.57 1023.69
1014.57 1015.08 1015.83 1016.12 1016.11 1016.37 1016.85 1017.23 1017.56 1017.79 1018.21 1018.55 1018.64 1018.94 1019.23 1019.47 1019.73 1020.02 1020.24 1020.44 1020.71 1021.08 1021.36 1021.57 1021.70 1021.82 1021.98 1022.28 1022.47 1022.68 1022.73 1022.78 1022.79 1022.92 1023.22 1023.42 1023.52 1023.62 1023.77 1023.93 1023.94 1024.05 1024.18
1014.95 1015.27 1015.97 1016.32 1016.42 1016.60 1017.10 1017.58 1017.86 1018.19 1018.44 1018.86 1019.01 1019.21 1019.42 1019.74 1020.06 1020.34 1020.57 1020.74 1021.01 1021.36 1021.65 1021.87 1022.08 1022.25 1022.38 1022.63 1022.89 1023.06 1023.14 1023.23 1023.40 1023.48 1023.67 1023.78 1023.84 1024.00 1024.16 1024.36 1024.50 1024.63 1024.72
1015.62 1015.98 1016.29 1016.61 1016.81 1016.81 1017.24 1017.79 1018.17 1018.42 1018.81 1019.04 1019.43 1019.51 1019.71 1020.01 1020.33 1020.59 1020.86 1021.07 1021.36 1021.67 1021.96 1022.19 1022.35 1022.52 1022.73 1022.94 1023.16 1023.36 1023.58 1023.53 1023.69 1023.84 1024.03 1024.11 1024.20 1024.33 1024.49 1024.72 1024.92 1025.00 1025.04
1015.92 1016.51 1016.96 1017.16 1017.29 1017.37 1017.51 1017.96 1018.36 1018.62 1019.05 1019.33 1019.55 1019.91 1020.08 1020.31 1020.52 1020.88 1021.07 1021.34 1021.62 1021.93 1022.22 1022.43 1022.61 1022.79 1022.99 1023.21 1023.46 1023.65 1023.91 1024.04 1024.07 1024.16 1024.36 1024.46 1024.56 1024.68 1024.86 1025.08 1025.19 1025.22 1025.34
1016.62 1016.77 1017.19 1017.47 1017.63 1017.93 1018.13 1018.31 1018.57 1018.89 1019.18 1019.62 1019.82 1020.11 1020.46 1020.65 1020.79 1021.05 1021.36 1021.55 1021.77 1022.05 1022.32 1022.54 1022.77 1022.99 1023.15 1023.35 1023.68 1023.93 1024.15 1024.32 1024.46 1024.52 1024.63 1024.68 1024.74 1024.80 1025.06 1025.34 1025.50 1025.60 1025.81
1017.08 1017.25 1017.34 1017.66 1017.88 1018.13 1018.45 1018.72 1018.94 1019.21 1019.47 1019.85 1020.23 1020.36 1020.64 1020.94 1021.25 1021.36 1021.56 1021.73 1021.91 1022.15 1022.38 1022.65 1022.86 1023.09 1023.35 1023.63 1023.88 1024.07 1024.28 1024.58 1024.76 1024.87 1024.93 1024.88 1024.94 1025.08 1025.26 1025.57 1025.72 1025.83 1025.98
1017.52 1017.36 1017.52 1017.65 1017.94 1018.18 1018.57 1019.03 1019.28 1019.47 1019.75 1020.03 1020.48 1020.77 1020.85 1021.07 1021.37 1021.74 1021.89 1021.89 1022.06 1022.35 1022.62 1022.79 1022.91 1023.12 1023.33 1023.70 1024.05 1024.33 1024.51 1024.59 1024.84 1025.02 1025.07 1025.06 1025.21 1025.37 1025.61 1025.86 1026.08 1026.20 1026.25
1017.49 1017.78 1017.80 1017.72 1018.01 1018.14 1018.49 1019.02 1019.44 1019.72 1019.96 1020.21 1020.48 1020.93 1021.13 1021.21 1021.44 1021.71 1022.10 1022.38 1022.42 1022.56 1022.90 1023.12 1023.24 1023.36 1023.47 1023.65 1024.09 1024.33 1024.59 1024.68 1024.83 1025.03 1024.99 1025.02 1025.20 1025.40 1025.64 1025.87 1026.10 1026.37 1026.66
1017.85 1017.48 1017.79 1017.85 1018.06 1018.00 1018.34 1018.72 1019.08 1019.54 1019.96 1020.25 1020.53 1020.80 1021.23 1021.41 1021.44 1021.64 1021.99 1022.29 1022.67 1022.85 1023.14 1023.37 1023.56 1023.65 1023.67 1023.70 1023.94 1024.25 1024.56 1024.75 1024.88 1025.00 1025.05 1025.13 1025.18 1025.32 1025.45 1025.64 1025.87 1026.20 1026.53
1016.83 1016.80 1017.03 1017.48 1017.79 1018.03 1018.24 1018.43 1018.83 1019.13 1019.68 1019.99 1020.51 1020.69 1021.01 1021.41 1021.46 1021.58 1021.93 1022.15 1022.37 1022.82 1023.19 1023.60 1023.79 1023.86 1023.93 1023.95 1024.05 1024.18 1024.47 1024.66 1024.85 1025.04 1025.13 1025.15 1025.26 1025.38 1025.46 1025.59 1025.95 1026.23 1026.47
1017.27 1016.84 1016.87 1017.02 1016.98 1017.41 1017.93 1018.07 1018.33 1018.66 1019.16 1019.72 1020.12 1020.44 1020.70 1021.14 1021.48 1021.66 1021.83 1022.14 1022.29 1022.50 1022.97 1023.41 1023.77 1023.95 1024.03 1024.13 1024.25 1024.36 1024.41 1024.61 1024.84 1025.10 1025.19 1025.28 1025.42 1025.50 1025.57 1025.70 1025.99 1026.22 1026.35
1018.38 1017.40 1017.01 1016.50 1016.48 1017.11 1017.36 1017.81 1017.81 1018.11 1018.56 1019.04 1019.58 1020.01 1020.28 1020.69 1021.20 1021.57 1021.89 1022.01 1022.22 1022.51 1022.78 1023.19 1023.74 1024.05 1024.18 1024.25 1024.26 1024.39 1024.50 1024.61 1024.82 1025.12 1025.27 1025.31 1025.51 1025.64 1025.71 1025.79 1025.92 1026.10 1026.41
1019.27 1018.47 1017.14 1016.80 1016.75 1016.82 1016.86 1016.96 1017.33 1017.78 1018.10 1018.41 1018.88 1019.43 1019.84 1020.13 1020.58 1021.12 1021.53 1021.83 1021.99 1022.37 1022.82 1023.07 1023.36 1024.09 1024.24 1024.31 1024.37 1024.34 1024.37 1024.61 1024.81 1025.00 1025.31 1025.34 1025.48 1025.66 1025.81 1025.86 1025.95 1026.12 1026.44
1020.20 1019.08 1017.70 1016.75 1016.54 1016.70 1016.66 1016.69 1016.96 1017.39 1017.79 1018.04 1018.40 1018.59 1019.15 1019.68 1020.02 1020.46 1020.86 1021.29 1021.87 1022.23 1022.54 1022.96 1023.32 1023.59 1024.02 1024.20 1024.29 1024.41 1024.50 1024.58 1024.67 1024.92 1025.14 1025.29 1025.36 1025.50 1025.68 1025.89 1026.01 1026.21 1026.48
1020.70 1019.94 1018.83 1018.03 1016.90 1016.65 1016.72 1016.94 1016.87 1017.25 1017.51 1017.82 1017.87 1018.00 1018.38 1018.82 1019.46 1019.99 1020.36 1020.74 1021.25 1022.01 1022.40 1022.81 1023.17 1023.33 1023.55 1023.86 1024.09 1024.30 1024.57 1024.72 1024.80 1024.89 1024.92 1025.13 1025.24 1025.42 1025.59 1025.79 1026.02 1026.19 1026.37
1021.00 1020.46 1019.72 1018.94 1018.33 1017.74 1016.56 1016.58 1016.66 1016.70 1016.70 1017.24 1017.65 1017.80 1018.25 1018.57 1018.89 1019.39 1019.82 1020.37 1020.71 1021.10 1021.65 1022.18 1022.71 1023.18 1023.55 1023.63 1024.11 1024.50 1024.52 1024.53 1024.72 1024.79 1024.97 1025.15 1025.19 1025.29 1025.51 1025.64 1025.83 1025.98 1026.18
1022.20 1021.48 1020.71 1019.87 1019.13 1018.35 1017.86 1016.76 1016.03 1016.21 1016.24 1016.33 1016.79 1017.32 1017.75 1018.21 1018.39 1018.53 1018.73 1019.27 1019.84 1020.45 1020.85 1021.41 1022.09 1022.87 1023.06 1023.27 1023.72 1024.26 1024.59 1024.57 1024.40 1024.43 1024.60 1024.74 1024.91 1025.04 1025.28 1025.46 1025.58 1025.71 1025.92
1022.87 1022.12 1021.38 1020.68 1019.73 1018.85 1018.26 1017.01 1015.92 1015.86 1015.90 1015.97 1016.21 1016.41 1016.54 1016.98 1017.53 1017.96 1018.29 1018.57 1019.02 1019.41 1019.98 1020.36 1020.98 1021.71 1022.45 1022.92 1022.64 1022.91 1024.15 1023.74 1023.83 1023.95 1024.06 1024.18 1024.54 1024.71 1024.73 1024.87 1025.12 1025.29 1025.51
1023.84 1022.84 1022.03 1021.08 1020.31 1019.39 1018.77 1017.74 1016.78 1015.64 1015.50 1015.24 1015.31 1015.58 1015.83 1016.25 1017.00 1017.61 1018.05 1018.30 1018.50 1018.71 1019.09 1019.43 1019.91 1020.49 1021.26 1021.88 1022.61 1021.90 1022.01 1022.31 1022.99 1023.71 1023.65 1023.67 1023.85 1024.07 1024.15 1024.27 1024.41 1024.64 1024.84
1024.45 1023.34 1022.47 1021.59 1020.68 1020.11 1019.30 1018.59 1017.89 1016.75 1015.54 1014.86 1015.01 1015.00 1015.46 1015.64 1015.85 1016.49 1017.00 1017.65 1018.02 1018.22 1018.48 1018.71 1019.20 1019.59 1020.00 1020.45 1020.87 1021.25 1021.76 1022.02 1022.12 1022.54 1023.07 1023.27 1023.49 1023.23 1023.33 1023.51 1023.70 1023.85 1024.03
1024.71 1023.78 1022.91 1022.03 1021.31 1020.43 1019.73 1018.96 1018.48 1017.73 1016.79 1015.76 1014.98 1014.85 1014.82 1015.04 1015.21 1015.44 1015.93 1016.42 1017.04 1017.42 1017.74 1017.74 1018.26 1018.84 1019.11 1019.50 1019.89 1020.16 1020.18 1020.75 1021.37 1021.83 1022.41 1022.64 1022.66 1022.66 1022.84 1023.00 1022.96 1023.09 1023.29
Wind_Speed
9 13 14 12 11 15 18 20 21 22 22 22 21 19 18 17 17 17 16 16 17 18 20 19 18 19 20 21 21 19 17 17 17 17 17 19 20 20 18 16 16 15 18
16 12 12 14 14 16 17 19 20 21 21 21 20 19 18 17 17 17 16 17 18 19 20 20 20 21 21 20 19 18 17 15 15 18 18 17 19 20 19 17 17 15 18
17 11 9 13 17 18 18 19 20 20 20 20 20 19 18 18 17 17 16 17 19 19 20 20 20 22 20 18 17 16 15 16 16 14 12 8 11 20 19 17 17 16 17
16 11 7 12 16 19 19 19 20 19 20 20 19 19 18 18 18 18 17 17 18 19 20 21 21 19 16 14 16 16 15 15 14 12 8 9 11 18 19 18 16 17 17
14 12 7 11 15 17 18 18 19 20 17 19 19 18 18 18 18 18 17 17 18 18 19 18 15 12 11 13 15 15 14 12 12 9 9 9 8 13 17 16 14 15 14
12 11 9 10 14 16 16 17 17 18 17 16 18 18 18 18 18 17 16 16 17 16 16 14 12 11 12 13 14 13 12 12 10 12 9 9 9 15 16 15 15 16 17
11 11 10 10 13 17 16 16 16 15 16 15 16 16 17 17 16 16 15 15 15 15 13 12 10 11 14 14 13 12 12 12 8 10 7 7 9 16 16 16 15 15 14
10 9 9 11 11 15 16 14 14 14 13 14 12 14 15 15 15 15 15 14 14 14 12 10 10 12 14 14 13 12 10 10 7 10 9 6 12 15 16 16 14 13 12
9 9 5 6 8 11 13 12 12 13 12 12 12 11 12 12 13 13 14 14 14 14 12 10 11 13 13 13 12 11 10 9 6 7 9 5 12 15 15 14 13 13 14
7 10 9 5 5 5 7 11 12 12 12 10 11 11 9 10 11 12 12 13 13 14 12 11 12 12 12 13 12 12 11 10 5 5 7 7 14 15 15 14 14 14 15
5 6 9 9 5 5 5 7 9 11 11 11 9 11 9 4 5 7 8 11 12 13 13 12 12 11 9 10 12 12 9 3 4 3 2 12 13 14 14 14 14 14 14
4 6 6 9 9 6 5 5 5 6 4 5 5 5 4 8 4 3 4 10 11 12 12 11 11 10 8 5 5 7 3 5 4 3 2 8 11 13 14 13 13 13 14
7 4 5 11 7 8 8 5 3 3 4 3 6 5 4 7 6 3 2 1 3 8 4 5 5 3 5 5 4 4 4 4 3 3 5 10 12 15 15 15 15 14 13
9 8 8 9 11 11 7 7 8 6 7 6 4 7 6 6 7 6 3 4 2 3 5 4 3 4 5 5 6 6 6 4 3 3 4 9 11 15 16 16 16 16 15
15 12 11 9 11 11 7 7 7 8 8 9 6 6 7 7 8 7 4 4 4 3 3 4 4 4 3 4 4 6 6 6 5 3 3 9 10 13 16 17 16 16 15
8 10 10 13 13 13 9 10 9 8 10 9 9 7 8 7 7 8 7 4 4 4 4 4 5 4 4 3 4 5 6 6 6 5 4 5 9 10 13 15 16 15 15
15 8 13 13 14 11 12 10 9 10 11 10 10 9 10 9 9 8 5 4 4 3 5 4 4 2 2 2 3 5 4 6 6 6 5 4 6 9 10 12 15 14 14
16 15 11 11 15 13 13 10 9 10 9 10 9 9 12 11 10 8 6 5 4 4 3 3 3 4 3 3 2 3 4 5 6 6 5 5 4 5 7 11 11 12 14
15 17 19 10 14 14 10 8 9 10 9 9 8 9 13 12 11 9 8 6 5 4 4 3 3 3 3 3 3 3 3 4 6 6 7 7 7 5 5 9 11 10 12
16 16 17 15 8 11 9 8 7 6 8 9 9 9 13 12 13 10 8 8 8 5 4 3 4 3 3 4 3 3 2 2 2 4 7 6 6 6 5 6 6 7 12
17 18 17 16 15 11 5 8 8 10 9 8 8 10 9 10 13 12 9 8 9 10 9 8 4 5 4 3 4 2 1 3 5 4 3 3 6 7 6 6 5 4 7
16 16 16 16 14 10 6 7 7 7 8 8 7 8 9 12 13 13 13 11 11 8 9 10 8 3 4 5 4 3 2 2 3 5 4 5 7 6 8 8 8 8 6
19 18 16 15 15 12 14 9 7 3 2 6 7 9 12 15 14 14 13 11 11 11 10 11 11 12 6 5 6 6 3 5 2 3 6 6 7 7 9 9 10 10 9
17 15 15 14 13 13 14 12 13 9 9 8 9 9 9 12 13 13 12 12 11 10 11 11 10 11 6 10 2 7 2 4 5 2 3 5 6 9 10 9 9 11 10
15 15 13 13 13 13 12 12 9 11 8 6 5 9 10 9 13 14 14 13 12 9 11 11 11 13 11 8 7 4 2 2 1 3 3 3 4 7 8 10 11 9 11
14 15 14 14 13 14 13 12 12 12 12 8 6 7 6 8 9 14 14 13 14 12 12 12 12 13 13 12 6 7 8 10 4 4 2 3 6 4 8 8 10 9 9
Wind_Direction
140 151 152 147 133 115 111 110 109 108 109 111 112 115 114 110 108 103 100 100 100 103 103 98 96 94 95 95 88 80 82 82 85 87 86 88 87 86 82 77 80 77 76
129 147 144 139 136 119 113 110 109 111 113 115 116 115 113 111 110 108 106 106 108 108 104 100 99 99 96 90 83 81 81 82 78 84 92 96 98 90 83 76 80 83 82
127 141 138 136 137 125 120 115 115 116 118 118 118 117 117 117 114 109 107 108 110 110 109 107 104 101 94 89 88 85 79 75 79 80 79 84 85 97 89 80 79 78 86
128 135 136 137 133 125 124 123 121 121 123 123 123 123 122 117 113 110 110 109 110 113 112 109 107 101 93 89 93 90 84 82 76 68 67 74 79 86 92 85 84 87 87
126 134 138 139 130 124 124 126 125 126 128 128 127 125 121 118 114 112 111 111 112 111 110 112 109 103 97 104 101 97 94 90 93 78 74 75 81 89 86 87 90 89 92
128 128 135 139 129 124 125 127 127 127 128 130 129 126 123 119 116 114 112 116 114 114 113 109 98 96 105 108 102 99 91 78 85 96 81 87 88 94 93 88 80 77 75
131 133 140 141 137 130 129 131 130 128 128 130 130 129 125 122 120 116 114 114 115 114 110 103 96 97 104 106 105 99 96 91 86 102 92 98 105 104 100 90 85 85 91
124 133 140 145 144 135 132 133 132 129 129 130 132 130 128 125 122 120 119 115 116 112 111 108 103 115 112 109 109 106 100 99 94 110 108 94 102 108 107 104 98 97 91
119 134 126 138 137 133 131 134 135 133 133 133 132 131 129 128 127 127 125 125 122 117 116 109 109 116 116 117 118 109 100 93 92 116 116 104 113 114 108 103 101 97 89
106 143 156 124 122 127 136 136 139 138 137 137 137 133 131 130 135 134 131 132 130 126 125 118 116 120 128 130 126 121 112 100 93 93 126 129 128 123 119 115 102 97 98
112 148 163 163 135 126 119 142 135 137 136 134 139 137 128 124 120 134 142 142 137 133 132 131 128 130 127 129 129 129 119 115 106 109 131 138 134 129 125 115 112 112 113
196 170 161 171 173 144 140 142 133 144 140 135 130 146 126 150 127 119 153 148 141 132 130 133 136 128 118 129 133 125 124 136 130 141 139 135 137 133 127 122 121 123 122
202 203 207 195 172 167 172 152 149 147 145 137 141 141 139 162 170 137 122 75 133 128 122 117 120 127 138 142 150 146 147 147 143 153 165 153 146 141 136 133 132 130 129
220 202 201 204 201 190 175 167 172 173 179 181 171 147 163 176 181 176 162 164 175 147 138 135 138 151 154 155 162 155 158 153 154 161 171 159 155 151 146 145 144 144 140
200 202 195 197 195 199 177 174 174 182 188 191 178 171 163 183 189 186 184 176 173 156 150 145 149 165 175 164 159 162 167 161 162 164 169 170 165 159 156 154 153 151 149
233 200 196 204 210 199 190 186 182 183 189 194 193 188 172 174 187 196 197 201 189 171 164 163 164 178 191 181 175 179 175 166 168 168 180 174 173 173 166 161 162 163 159
344 283 221 208 200 203 207 194 195 197 191 192 195 187 184 177 177 190 194 187 198 187 175 162 151 136 191 214 212 196 175 171 173 175 187 175 184 184 178 171 173 173 168
349 346 271 210 214 205 206 201 201 202 198 197 189 183 189 187 184 181 184 200 187 174 177 181 171 161 191 208 216 198 170 173 175 169 192 186 181 188 193 187 183 175 172
352 351 356 221 215 212 222 205 201 209 205 204 195 189 190 192 188 188 191 189 176 182 185 179 190 163 170 190 208 191 186 186 185 179 196 198 193 189 188 202 190 180 175
357 358 1 4 274 214 210 225 223 208 209 213 206 203 191 192 190 192 196 189 176 180 193 168 192 186 172 173 186 176 200 216 185 202 206 200 198 197 190 193 195 197 187
0 360 359 357 350 355 225 211 211 214 207 208 213 213 198 202 193 193 197 192 190 189 195 193 173 189 215 164 111 57 62 211 211 205 195 209 208 204 200 199 196 199 201
349 351 354 349 348 344 327 299 217 212 216 210 195 200 200 203 203 200 198 195 192 191 186 186 184 165 203 184 148 118 229 288 231 209 192 198 209 199 213 212 208 203 199
347 347 347 344 346 352 343 312 247 189 196 190 198 206 205 203 207 210 206 201 193 193 196 194 190 191 193 202 208 152 163 218 141 177 212 198 197 203 216 216 216 216 210
338 338 341 342 346 351 349 347 333 231 228 218 214 218 208 199 206 212 216 209 205 203 200 197 191 195 158 201 214 230 190 155 187 200 216 212 193 205 210 217 213 217 213
339 337 337 345 344 347 352 356 351 350 285 232 217 210 209 201 203 207 209 209 210 206 212 196 194 196 202 203 199 148 163 182 186 140 198 197 217 211 210 213 219 216 212
335 339 338 349 346 345 348 353 354 348 332 333 277 217 199 207 207 206 206 207 215 213 210 206 199 199 203 212 196 214 207 205 179 166 153 214 217 207 216 216 219 218 215